owner,sensor,date,latitude,longitude,vertical_datum,mass_concentration_of_oxygen_in_sea_water,qcFlag 
DISL,ioos:station:DISL:MHPA:1,2017-06-01T00:00:00Z,30.6671,-87.9365,1.31,6.79,1111122 
DISL,ioos:station:DISL:MHPA:1,2017-06-01T00:30:00Z,30.6671,-87.9365,1.296,6.62,1111122 
DISL,ioos:station:DISL:MHPA:1,2017-06-01T01:00:00Z,30.6671,-87.9365,1.277,6.67,1111122 
DISL,ioos:station:DISL:MHPA:1,2017-06-01T01:30:00Z,30.6671,-87.9365,1.268,6.67,1111122 
DISL,ioos:station:DISL:MHPA:1,2017-06-01T02:00:00Z,30.6671,-87.9365,1.245,6.89,1111122 
DISL,ioos:station:DISL:MHPA:1,2017-06-01T02:30:00Z,30.6671,-87.9365,1.216,6.99,1111122 
DISL,ioos:station:DISL:MHPA:1,2017-06-01T03:00:00Z,30.6671,-87.9365,1.183,6.31,1111122 
DISL,ioos:station:DISL:MHPA:1,2017-06-01T03:30:00Z,30.6671,-87.9365,1.155,6.02,1111122 
DISL,ioos:station:DISL:MHPA:1,2017-06-01T04:00:00Z,30.6671,-87.9365,1.117,5.93,1111122 
DISL,ioos:station:DISL:MHPA:1,2017-06-01T04:30:00Z,30.6671,-87.9365,1.074,5.73,1111122 
DISL,ioos:station:DISL:MHPA:1,2017-06-01T05:00:00Z,30.6671,-87.9365,1.032,5.6,1111122 
DISL,ioos:station:DISL:MHPA:1,2017-06-01T05:30:00Z,30.6671,-87.9365,0.998,5.55,1111122 
DISL,ioos:station:DISL:MHPA:1,2017-06-01T06:00:00Z,30.6671,-87.9365,0.971,5.68,1111122 
DISL,ioos:station:DISL:MHPA:1,2017-06-01T06:30:00Z,30.6671,-87.9365,0.951,5.89,1111122 
DISL,ioos:station:DISL:MHPA:1,2017-06-01T07:00:00Z,30.6671,-87.9365,0.942,6.06,1111122 
DISL,ioos:station:DISL:MHPA:1,2017-06-01T07:30:00Z,30.6671,-87.9365,0.938,6.03,1111122 
DISL,ioos:station:DISL:MHPA:1,2017-06-01T08:00:00Z,30.6671,-87.9365,0.929,5.84,1111122 
DISL,ioos:station:DISL:MHPA:1,2017-06-01T08:30:00Z,30.6671,-87.9365,0.933,5.96,1111122 
DISL,ioos:station:DISL:MHPA:1,2017-06-01T09:00:00Z,30.6671,-87.9365,0.93,5.74,1111122 
DISL,ioos:station:DISL:MHPA:1,2017-06-01T09:30:00Z,30.6671,-87.9365,0.924,5.58,1111122 
DISL,ioos:station:DISL:MHPA:1,2017-06-01T10:00:00Z,30.6671,-87.9365,0.923,5.73,1111122 
DISL,ioos:station:DISL:MHPA:1,2017-06-01T10:30:00Z,30.6671,-87.9365,0.932,5.59,1111122 
DISL,ioos:station:DISL:MHPA:1,2017-06-01T11:00:00Z,30.6671,-87.9365,0.936,5.67,1111122 
DISL,ioos:station:DISL:MHPA:1,2017-06-01T11:30:00Z,30.6671,-87.9365,0.929,5.63,1111122 
DISL,ioos:station:DISL:MHPA:1,2017-06-01T12:00:00Z,30.6671,-87.9365,0.939,5.44,1111122 
DISL,ioos:station:DISL:MHPA:1,2017-06-01T12:30:00Z,30.6671,-87.9365,0.965,5.51,1111122 
DISL,ioos:station:DISL:MHPA:1,2017-06-01T13:00:00Z,30.6671,-87.9365,0.993,5.45,1111122 
DISL,ioos:station:DISL:MHPA:1,2017-06-01T13:30:00Z,30.6671,-87.9365,1.018,5.4,1111122 
DISL,ioos:station:DISL:MHPA:1,2017-06-01T14:00:00Z,30.6671,-87.9365,1.042,5.2,1111122 
DISL,ioos:station:DISL:MHPA:1,2017-06-01T14:30:00Z,30.6671,-87.9365,1.074,5.12,1111122 
DISL,ioos:station:DISL:MHPA:1,2017-06-01T15:00:00Z,30.6671,-87.9365,1.119,5.07,1111122 
DISL,ioos:station:DISL:MHPA:1,2017-06-01T15:30:00Z,30.6671,-87.9365,1.143,5.12,1111122 
DISL,ioos:station:DISL:MHPA:1,2017-06-01T16:00:00Z,30.6671,-87.9365,1.175,4.91,1111122 
DISL,ioos:station:DISL:MHPA:1,2017-06-01T16:30:00Z,30.6671,-87.9365,1.208,5.12,1111122 
DISL,ioos:station:DISL:MHPA:1,2017-06-01T17:00:00Z,30.6671,-87.9365,1.251,5.94,1111122 
DISL,ioos:station:DISL:MHPA:1,2017-06-01T17:30:00Z,30.6671,-87.9365,1.275,6.14,1111122 
DISL,ioos:station:DISL:MHPA:1,2017-06-01T18:00:00Z,30.6671,-87.9365,1.249,6.52,1111122 
DISL,ioos:station:DISL:MHPA:1,2017-06-01T18:30:00Z,30.6671,-87.9365,1.231,6.52,1111122 
DISL,ioos:station:DISL:MHPA:1,2017-06-01T19:00:00Z,30.6671,-87.9365,1.226,6.41,1111122 
DISL,ioos:station:DISL:MHPA:1,2017-06-01T19:30:00Z,30.6671,-87.9365,1.22,6.65,1111122 
DISL,ioos:station:DISL:MHPA:1,2017-06-01T20:00:00Z,30.6671,-87.9365,1.222,6.04,1111122 
DISL,ioos:station:DISL:MHPA:1,2017-06-01T20:30:00Z,30.6671,-87.9365,1.219,5.49,1111122 
DISL,ioos:station:DISL:MHPA:1,2017-06-01T21:00:00Z,30.6671,-87.9365,1.22,5.68,1111122 
DISL,ioos:station:DISL:MHPA:1,2017-06-01T21:30:00Z,30.6671,-87.9365,1.196,5.98,1111122 
DISL,ioos:station:DISL:MHPA:1,2017-06-01T22:00:00Z,30.6671,-87.9365,1.181,5.82,1111122 
DISL,ioos:station:DISL:MHPA:1,2017-06-01T22:30:00Z,30.6671,-87.9365,1.164,5.07,1111122 
DISL,ioos:station:DISL:MHPA:1,2017-06-01T23:00:00Z,30.6671,-87.9365,1.143,5.64,1111122 
DISL,ioos:station:DISL:MHPA:1,2017-06-01T23:30:00Z,30.6671,-87.9365,1.136,6.05,1111122 
DISL,ioos:station:DISL:MHPA:1,2017-06-02T00:00:00Z,30.6671,-87.9365,1.144,6.28,1111122 
DISL,ioos:station:DISL:MHPA:1,2017-06-02T00:30:00Z,30.6671,-87.9365,1.136,8.61,1111122 
DISL,ioos:station:DISL:MHPA:1,2017-06-02T01:00:00Z,30.6671,-87.9365,1.156,8.59,1111122 
DISL,ioos:station:DISL:MHPA:1,2017-06-02T01:30:00Z,30.6671,-87.9365,1.162,8.45,1111122 
DISL,ioos:station:DISL:MHPA:1,2017-06-02T02:00:00Z,30.6671,-87.9365,1.142,7.58,1111122 
DISL,ioos:station:DISL:MHPA:1,2017-06-02T02:30:00Z,30.6671,-87.9365,1.131,8.02,1111122 
DISL,ioos:station:DISL:MHPA:1,2017-06-02T03:00:00Z,30.6671,-87.9365,1.127,6.19,1111122 
DISL,ioos:station:DISL:MHPA:1,2017-06-02T03:30:00Z,30.6671,-87.9365,1.116,6.55,1111122 
DISL,ioos:station:DISL:MHPA:1,2017-06-02T04:00:00Z,30.6671,-87.9365,1.099,6.04,1111122 
DISL,ioos:station:DISL:MHPA:1,2017-06-02T04:30:00Z,30.6671,-87.9365,1.065,5.73,1111122 
DISL,ioos:station:DISL:MHPA:1,2017-06-02T05:00:00Z,30.6671,-87.9365,1.04,5.82,1111122 
DISL,ioos:station:DISL:MHPA:1,2017-06-02T05:30:00Z,30.6671,-87.9365,1.032,5.94,1111122 
DISL,ioos:station:DISL:MHPA:1,2017-06-02T06:00:00Z,30.6671,-87.9365,1.034,6.29,1111122 
DISL,ioos:station:DISL:MHPA:1,2017-06-02T06:30:00Z,30.6671,-87.9365,1.025,6.55,1111122 
DISL,ioos:station:DISL:MHPA:1,2017-06-02T07:00:00Z,30.6671,-87.9365,1.014,6.84,1111122 
DISL,ioos:station:DISL:MHPA:1,2017-06-02T07:30:00Z,30.6671,-87.9365,1.015,6.58,1111122 
DISL,ioos:station:DISL:MHPA:1,2017-06-02T08:00:00Z,30.6671,-87.9365,0.999,6.34,1111122 
DISL,ioos:station:DISL:MHPA:1,2017-06-02T08:30:00Z,30.6671,-87.9365,0.993,6.37,1111122 
DISL,ioos:station:DISL:MHPA:1,2017-06-02T09:00:00Z,30.6671,-87.9365,0.989,6.62,1111122 
DISL,ioos:station:DISL:MHPA:1,2017-06-02T09:30:00Z,30.6671,-87.9365,0.992,6.68,1111122 
DISL,ioos:station:DISL:MHPA:1,2017-06-02T10:00:00Z,30.6671,-87.9365,1.006,5.97,1111122 
DISL,ioos:station:DISL:MHPA:1,2017-06-02T10:30:00Z,30.6671,-87.9365,1.019,6.15,1111122 
DISL,ioos:station:DISL:MHPA:1,2017-06-02T11:00:00Z,30.6671,-87.9365,1.048,5.94,1111122 
DISL,ioos:station:DISL:MHPA:1,2017-06-02T11:30:00Z,30.6671,-87.9365,1.083,5.79,1111122 
DISL,ioos:station:DISL:MHPA:1,2017-06-02T12:00:00Z,30.6671,-87.9365,1.116,6.24,1111122 
DISL,ioos:station:DISL:MHPA:1,2017-06-02T12:30:00Z,30.6671,-87.9365,1.143,5.87,1111122 
DISL,ioos:station:DISL:MHPA:1,2017-06-02T13:00:00Z,30.6671,-87.9365,1.159,5.89,1111122 
DISL,ioos:station:DISL:MHPA:1,2017-06-02T13:30:00Z,30.6671,-87.9365,1.184,6.68,1111122 
DISL,ioos:station:DISL:MHPA:1,2017-06-02T14:00:00Z,30.6671,-87.9365,1.202,6.53,1111122 
DISL,ioos:station:DISL:MHPA:1,2017-06-02T14:30:00Z,30.6671,-87.9365,1.217,6.81,1111122 
DISL,ioos:station:DISL:MHPA:1,2017-06-02T17:00:00Z,30.6671,-87.9365,1.251,8.07,1111122 
DISL,ioos:station:DISL:MHPA:1,2017-06-02T17:30:00Z,30.6671,-87.9365,1.272,7.85,1111122 
DISL,ioos:station:DISL:MHPA:1,2017-06-02T18:00:00Z,30.6671,-87.9365,1.265,7.68,1111122 
DISL,ioos:station:DISL:MHPA:1,2017-06-02T18:30:00Z,30.6671,-87.9365,1.277,8.05,1111122 
DISL,ioos:station:DISL:MHPA:1,2017-06-02T19:00:00Z,30.6671,-87.9365,1.295,8.64,1111122 
DISL,ioos:station:DISL:MHPA:1,2017-06-02T19:30:00Z,30.6671,-87.9365,1.279,8.46,1111122 
DISL,ioos:station:DISL:MHPA:1,2017-06-02T20:00:00Z,30.6671,-87.9365,1.276,8.36,1111122 
DISL,ioos:station:DISL:MHPA:1,2017-06-02T20:30:00Z,30.6671,-87.9365,1.271,8.0,1111122 
DISL,ioos:station:DISL:MHPA:1,2017-06-02T21:00:00Z,30.6671,-87.9365,1.267,8.04,1111122 
DISL,ioos:station:DISL:MHPA:1,2017-06-02T21:30:00Z,30.6671,-87.9365,1.26,8.59,1111122 
DISL,ioos:station:DISL:MHPA:1,2017-06-02T22:00:00Z,30.6671,-87.9365,1.235,8.32,1111122 
DISL,ioos:station:DISL:MHPA:1,2017-06-02T22:30:00Z,30.6671,-87.9365,1.237,8.22,1111122 
DISL,ioos:station:DISL:MHPA:1,2017-06-02T23:00:00Z,30.6671,-87.9365,1.253,8.16,1111122 
DISL,ioos:station:DISL:MHPA:1,2017-06-02T23:30:00Z,30.6671,-87.9365,1.267,8.25,1111122 
DISL,ioos:station:DISL:MHPA:1,2017-06-03T00:00:00Z,30.6671,-87.9365,1.25,8.08,1111122 
DISL,ioos:station:DISL:MHPA:1,2017-06-03T00:30:00Z,30.6671,-87.9365,1.23,8.06,1111122 
DISL,ioos:station:DISL:MHPA:1,2017-06-03T01:00:00Z,30.6671,-87.9365,1.216,7.63,1111122 
DISL,ioos:station:DISL:MHPA:1,2017-06-03T01:30:00Z,30.6671,-87.9365,1.194,7.28,1111122 
DISL,ioos:station:DISL:MHPA:1,2017-06-03T02:00:00Z,30.6671,-87.9365,1.2,7.74,1111122 
DISL,ioos:station:DISL:MHPA:1,2017-06-03T02:30:00Z,30.6671,-87.9365,1.223,7.21,1111122 
DISL,ioos:station:DISL:MHPA:1,2017-06-03T03:00:00Z,30.6671,-87.9365,1.204,7.58,1111122 
DISL,ioos:station:DISL:MHPA:1,2017-06-03T03:30:00Z,30.6671,-87.9365,1.167,7.49,1111122 
DISL,ioos:station:DISL:MHPA:1,2017-06-03T04:00:00Z,30.6671,-87.9365,1.146,7.51,1111122 
DISL,ioos:station:DISL:MHPA:1,2017-06-03T04:30:00Z,30.6671,-87.9365,1.161,7.24,1111122 
DISL,ioos:station:DISL:MHPA:1,2017-06-03T05:00:00Z,30.6671,-87.9365,1.167,7.0,1111122 
DISL,ioos:station:DISL:MHPA:1,2017-06-03T05:30:00Z,30.6671,-87.9365,1.13,7.11,1111122 
DISL,ioos:station:DISL:MHPA:1,2017-06-03T06:00:00Z,30.6671,-87.9365,1.127,6.94,1111122 
DISL,ioos:station:DISL:MHPA:1,2017-06-03T06:30:00Z,30.6671,-87.9365,1.134,6.85,1111122 
DISL,ioos:station:DISL:MHPA:1,2017-06-03T07:00:00Z,30.6671,-87.9365,1.107,6.82,1111122 
DISL,ioos:station:DISL:MHPA:1,2017-06-03T07:30:00Z,30.6671,-87.9365,1.087,6.59,1111122 
DISL,ioos:station:DISL:MHPA:1,2017-06-03T08:00:00Z,30.6671,-87.9365,1.092,6.78,1111122 
DISL,ioos:station:DISL:MHPA:1,2017-06-03T08:30:00Z,30.6671,-87.9365,1.095,6.72,1111122 
DISL,ioos:station:DISL:MHPA:1,2017-06-03T09:00:00Z,30.6671,-87.9365,1.089,6.46,1111122 
DISL,ioos:station:DISL:MHPA:1,2017-06-03T09:30:00Z,30.6671,-87.9365,1.097,6.69,1111122 
DISL,ioos:station:DISL:MHPA:1,2017-06-03T10:00:00Z,30.6671,-87.9365,1.117,6.62,1111122 
DISL,ioos:station:DISL:MHPA:1,2017-06-03T10:30:00Z,30.6671,-87.9365,1.136,6.49,1111122 
DISL,ioos:station:DISL:MHPA:1,2017-06-03T11:00:00Z,30.6671,-87.9365,1.17,6.53,1111122 
DISL,ioos:station:DISL:MHPA:1,2017-06-03T11:30:00Z,30.6671,-87.9365,1.196,6.38,1111122 
DISL,ioos:station:DISL:MHPA:1,2017-06-03T12:00:00Z,30.6671,-87.9365,1.223,6.42,1111122 
DISL,ioos:station:DISL:MHPA:1,2017-06-03T12:30:00Z,30.6671,-87.9365,1.241,6.46,1111122 
DISL,ioos:station:DISL:MHPA:1,2017-06-03T13:00:00Z,30.6671,-87.9365,1.253,6.68,1111122 
DISL,ioos:station:DISL:MHPA:1,2017-06-03T13:30:00Z,30.6671,-87.9365,1.265,6.46,1111122 
DISL,ioos:station:DISL:MHPA:1,2017-06-03T14:00:00Z,30.6671,-87.9365,1.3,6.66,1111122 
DISL,ioos:station:DISL:MHPA:1,2017-06-03T14:30:00Z,30.6671,-87.9365,1.338,6.82,1111122 
DISL,ioos:station:DISL:MHPA:1,2017-06-03T15:00:00Z,30.6671,-87.9365,1.322,6.65,1111122 
DISL,ioos:station:DISL:MHPA:1,2017-06-03T15:30:00Z,30.6671,-87.9365,1.308,6.58,1111122 
DISL,ioos:station:DISL:MHPA:1,2017-06-03T16:00:00Z,30.6671,-87.9365,1.335,6.49,1111122 
DISL,ioos:station:DISL:MHPA:1,2017-06-03T16:30:00Z,30.6671,-87.9365,1.358,6.77,1111122 
DISL,ioos:station:DISL:MHPA:1,2017-06-03T17:00:00Z,30.6671,-87.9365,1.374,6.72,1111122 
DISL,ioos:station:DISL:MHPA:1,2017-06-03T17:30:00Z,30.6671,-87.9365,1.359,7.0,1111122 
DISL,ioos:station:DISL:MHPA:1,2017-06-03T18:00:00Z,30.6671,-87.9365,1.321,7.2,1111122 
DISL,ioos:station:DISL:MHPA:1,2017-06-03T18:30:00Z,30.6671,-87.9365,1.298,7.49,1111122 
DISL,ioos:station:DISL:MHPA:1,2017-06-03T19:00:00Z,30.6671,-87.9365,1.273,7.54,1111122 
DISL,ioos:station:DISL:MHPA:1,2017-06-03T19:30:00Z,30.6671,-87.9365,1.234,7.82,1111122 
DISL,ioos:station:DISL:MHPA:1,2017-06-03T20:00:00Z,30.6671,-87.9365,1.193,7.54,1111122 
DISL,ioos:station:DISL:MHPA:1,2017-06-03T20:30:00Z,30.6671,-87.9365,1.154,7.23,1111122 
DISL,ioos:station:DISL:MHPA:1,2017-06-03T21:00:00Z,30.6671,-87.9365,1.124,7.11,1111122 
DISL,ioos:station:DISL:MHPA:1,2017-06-03T21:30:00Z,30.6671,-87.9365,1.098,6.24,1111122 
DISL,ioos:station:DISL:MHPA:1,2017-06-03T22:00:00Z,30.6671,-87.9365,1.071,6.4,1111122 
DISL,ioos:station:DISL:MHPA:1,2017-06-03T22:30:00Z,30.6671,-87.9365,1.04,6.84,1111122 
DISL,ioos:station:DISL:MHPA:1,2017-06-03T23:00:00Z,30.6671,-87.9365,1.022,7.2,1111122 
DISL,ioos:station:DISL:MHPA:1,2017-06-03T23:30:00Z,30.6671,-87.9365,1.024,7.3,1111122 
DISL,ioos:station:DISL:MHPA:1,2017-06-04T00:00:00Z,30.6671,-87.9365,1.012,7.04,1111122 
DISL,ioos:station:DISL:MHPA:1,2017-06-04T00:30:00Z,30.6671,-87.9365,0.999,6.97,1111122 
DISL,ioos:station:DISL:MHPA:1,2017-06-04T01:00:00Z,30.6671,-87.9365,0.995,7.03,1111122 
DISL,ioos:station:DISL:MHPA:1,2017-06-04T01:30:00Z,30.6671,-87.9365,0.995,6.8,1111122 
DISL,ioos:station:DISL:MHPA:1,2017-06-04T02:00:00Z,30.6671,-87.9365,1.012,6.87,1111122 
DISL,ioos:station:DISL:MHPA:1,2017-06-04T02:30:00Z,30.6671,-87.9365,1.029,6.87,1111122 
DISL,ioos:station:DISL:MHPA:1,2017-06-04T03:00:00Z,30.6671,-87.9365,1.054,7.08,1111122 
DISL,ioos:station:DISL:MHPA:1,2017-06-04T03:30:00Z,30.6671,-87.9365,1.027,6.66,1111122 
DISL,ioos:station:DISL:MHPA:1,2017-06-04T04:00:00Z,30.6671,-87.9365,1.005,6.67,1111122 
DISL,ioos:station:DISL:MHPA:1,2017-06-04T04:30:00Z,30.6671,-87.9365,1.017,6.58,1111122 
DISL,ioos:station:DISL:MHPA:1,2017-06-04T05:00:00Z,30.6671,-87.9365,1.041,6.6,1111122 
DISL,ioos:station:DISL:MHPA:1,2017-06-04T05:30:00Z,30.6671,-87.9365,1.058,6.48,1111122 
DISL,ioos:station:DISL:MHPA:1,2017-06-04T06:00:00Z,30.6671,-87.9365,1.066,6.47,1111122 
DISL,ioos:station:DISL:MHPA:1,2017-06-04T06:30:00Z,30.6671,-87.9365,1.09,6.36,1111122 
DISL,ioos:station:DISL:MHPA:1,2017-06-04T07:00:00Z,30.6671,-87.9365,1.108,6.27,1111122 
DISL,ioos:station:DISL:MHPA:1,2017-06-04T07:30:00Z,30.6671,-87.9365,1.118,6.35,1111122 
DISL,ioos:station:DISL:MHPA:1,2017-06-04T08:00:00Z,30.6671,-87.9365,1.132,5.95,1111122 
DISL,ioos:station:DISL:MHPA:1,2017-06-04T08:30:00Z,30.6671,-87.9365,1.154,5.89,1111122 
DISL,ioos:station:DISL:MHPA:1,2017-06-04T09:00:00Z,30.6671,-87.9365,1.186,5.85,1111122 
DISL,ioos:station:DISL:MHPA:1,2017-06-04T09:30:00Z,30.6671,-87.9365,1.201,5.72,1111122 
DISL,ioos:station:DISL:MHPA:1,2017-06-04T10:00:00Z,30.6671,-87.9365,1.216,5.72,1111122 
DISL,ioos:station:DISL:MHPA:1,2017-06-04T10:30:00Z,30.6671,-87.9365,1.234,5.65,1111122 
DISL,ioos:station:DISL:MHPA:1,2017-06-04T11:00:00Z,30.6671,-87.9365,1.25,5.55,1111122 
DISL,ioos:station:DISL:MHPA:1,2017-06-04T11:30:00Z,30.6671,-87.9365,1.271,5.59,1111122 
DISL,ioos:station:DISL:MHPA:1,2017-06-04T12:00:00Z,30.6671,-87.9365,1.293,5.53,1111122 
DISL,ioos:station:DISL:MHPA:1,2017-06-04T12:30:00Z,30.6671,-87.9365,1.312,5.54,1111122 
DISL,ioos:station:DISL:MHPA:1,2017-06-04T13:00:00Z,30.6671,-87.9365,1.304,5.61,1111122 
DISL,ioos:station:DISL:MHPA:1,2017-06-04T13:30:00Z,30.6671,-87.9365,1.295,5.4,1111122 
DISL,ioos:station:DISL:MHPA:1,2017-06-04T14:00:00Z,30.6671,-87.9365,1.285,5.36,1111122 
DISL,ioos:station:DISL:MHPA:1,2017-06-04T14:30:00Z,30.6671,-87.9365,1.272,5.43,1111122 
DISL,ioos:station:DISL:MHPA:1,2017-06-04T15:00:00Z,30.6671,-87.9365,1.265,5.78,1111122 
DISL,ioos:station:DISL:MHPA:1,2017-06-04T15:30:00Z,30.6671,-87.9365,1.262,5.91,1111122 
DISL,ioos:station:DISL:MHPA:1,2017-06-04T16:00:00Z,30.6671,-87.9365,1.251,6.28,1111122 
DISL,ioos:station:DISL:MHPA:1,2017-06-04T16:30:00Z,30.6671,-87.9365,1.254,6.59,1111122 
DISL,ioos:station:DISL:MHPA:1,2017-06-04T17:00:00Z,30.6671,-87.9365,1.259,6.18,1111122 
DISL,ioos:station:DISL:MHPA:1,2017-06-04T17:30:00Z,30.6671,-87.9365,1.292,7.24,1111122 
DISL,ioos:station:DISL:MHPA:1,2017-06-04T18:00:00Z,30.6671,-87.9365,1.296,6.39,1111122 
DISL,ioos:station:DISL:MHPA:1,2017-06-04T18:30:00Z,30.6671,-87.9365,1.318,6.95,1111122 
DISL,ioos:station:DISL:MHPA:1,2017-06-04T19:00:00Z,30.6671,-87.9365,1.332,7.4,1111122 
DISL,ioos:station:DISL:MHPA:1,2017-06-04T19:30:00Z,30.6671,-87.9365,1.313,7.71,1111122 
DISL,ioos:station:DISL:MHPA:1,2017-06-04T20:00:00Z,30.6671,-87.9365,1.291,7.59,1111122 
DISL,ioos:station:DISL:MHPA:1,2017-06-04T20:30:00Z,30.6671,-87.9365,1.272,7.84,1111122 
DISL,ioos:station:DISL:MHPA:1,2017-06-04T21:00:00Z,30.6671,-87.9365,1.256,7.97,1111122 
DISL,ioos:station:DISL:MHPA:1,2017-06-04T21:30:00Z,30.6671,-87.9365,1.23,7.92,1111122 
DISL,ioos:station:DISL:MHPA:1,2017-06-04T22:00:00Z,30.6671,-87.9365,1.204,8.08,1111122 
DISL,ioos:station:DISL:MHPA:1,2017-06-04T22:30:00Z,30.6671,-87.9365,1.181,8.21,1111122 
DISL,ioos:station:DISL:MHPA:1,2017-06-04T23:00:00Z,30.6671,-87.9365,1.154,8.19,1111122 
DISL,ioos:station:DISL:MHPA:1,2017-06-04T23:30:00Z,30.6671,-87.9365,1.139,8.08,1111122 
DISL,ioos:station:DISL:MHPA:1,2017-06-05T00:00:00Z,30.6671,-87.9365,1.136,8.28,1111122 
DISL,ioos:station:DISL:MHPA:1,2017-06-05T00:30:00Z,30.6671,-87.9365,1.133,8.28,1111122 
DISL,ioos:station:DISL:MHPA:1,2017-06-05T01:00:00Z,30.6671,-87.9365,1.13,8.21,1111122 
DISL,ioos:station:DISL:MHPA:1,2017-06-05T01:30:00Z,30.6671,-87.9365,1.131,8.08,1111122 
DISL,ioos:station:DISL:MHPA:1,2017-06-05T02:00:00Z,30.6671,-87.9365,1.135,7.91,1111122 
DISL,ioos:station:DISL:MHPA:1,2017-06-05T02:30:00Z,30.6671,-87.9365,1.13,7.85,1111122 
DISL,ioos:station:DISL:MHPA:1,2017-06-05T03:00:00Z,30.6671,-87.9365,1.125,7.61,1111122 
DISL,ioos:station:DISL:MHPA:1,2017-06-05T03:30:00Z,30.6671,-87.9365,1.132,7.27,1111122 
DISL,ioos:station:DISL:MHPA:1,2017-06-05T04:00:00Z,30.6671,-87.9365,1.147,7.38,1111122 
DISL,ioos:station:DISL:MHPA:1,2017-06-05T04:30:00Z,30.6671,-87.9365,1.154,7.3,1111122 
DISL,ioos:station:DISL:MHPA:1,2017-06-05T05:00:00Z,30.6671,-87.9365,1.17,7.47,1111122 
DISL,ioos:station:DISL:MHPA:1,2017-06-05T05:30:00Z,30.6671,-87.9365,1.171,7.33,1111122 
DISL,ioos:station:DISL:MHPA:1,2017-06-05T06:00:00Z,30.6671,-87.9365,1.201,7.44,1111122 
DISL,ioos:station:DISL:MHPA:1,2017-06-05T06:30:00Z,30.6671,-87.9365,1.239,7.31,1111122 
DISL,ioos:station:DISL:MHPA:1,2017-06-05T07:00:00Z,30.6671,-87.9365,1.279,7.21,1111122 
DISL,ioos:station:DISL:MHPA:1,2017-06-05T07:30:00Z,30.6671,-87.9365,1.314,7.23,1111122 
DISL,ioos:station:DISL:MHPA:1,2017-06-05T08:00:00Z,30.6671,-87.9365,1.328,7.13,1111122 
DISL,ioos:station:DISL:MHPA:1,2017-06-05T08:30:00Z,30.6671,-87.9365,1.348,7.13,1111122 
DISL,ioos:station:DISL:MHPA:1,2017-06-05T09:00:00Z,30.6671,-87.9365,1.365,7.03,1111122 
DISL,ioos:station:DISL:MHPA:1,2017-06-05T09:30:00Z,30.6671,-87.9365,1.386,6.82,1111122 
DISL,ioos:station:DISL:MHPA:1,2017-06-05T10:00:00Z,30.6671,-87.9365,1.395,6.82,1111122 
DISL,ioos:station:DISL:MHPA:1,2017-06-05T10:30:00Z,30.6671,-87.9365,1.406,6.56,1111122 
DISL,ioos:station:DISL:MHPA:1,2017-06-05T11:00:00Z,30.6671,-87.9365,1.4,6.51,1111122 
DISL,ioos:station:DISL:MHPA:1,2017-06-05T11:30:00Z,30.6671,-87.9365,1.401,6.01,1111122 
DISL,ioos:station:DISL:MHPA:1,2017-06-05T12:00:00Z,30.6671,-87.9365,1.399,5.85,1111122 
DISL,ioos:station:DISL:MHPA:1,2017-06-05T12:30:00Z,30.6671,-87.9365,1.408,5.6,1111122 
DISL,ioos:station:DISL:MHPA:1,2017-06-05T13:00:00Z,30.6671,-87.9365,1.434,6.36,1111122 
DISL,ioos:station:DISL:MHPA:1,2017-06-05T13:30:00Z,30.6671,-87.9365,1.435,6.58,1111122 
DISL,ioos:station:DISL:MHPA:1,2017-06-05T14:00:00Z,30.6671,-87.9365,1.423,6.5,1111122 
DISL,ioos:station:DISL:MHPA:1,2017-06-05T14:30:00Z,30.6671,-87.9365,1.412,6.65,1111122 
DISL,ioos:station:DISL:MHPA:1,2017-06-05T15:00:00Z,30.6671,-87.9365,1.407,7.04,1111122 
DISL,ioos:station:DISL:MHPA:1,2017-06-05T15:30:00Z,30.6671,-87.9365,1.392,7.19,1111122 
DISL,ioos:station:DISL:MHPA:1,2017-06-05T16:00:00Z,30.6671,-87.9365,1.395,7.19,1111122 
DISL,ioos:station:DISL:MHPA:1,2017-06-05T16:30:00Z,30.6671,-87.9365,1.401,7.2,1111122 
DISL,ioos:station:DISL:MHPA:1,2017-06-05T17:00:00Z,30.6671,-87.9365,1.409,7.24,1111122 
DISL,ioos:station:DISL:MHPA:1,2017-06-05T17:30:00Z,30.6671,-87.9365,1.422,7.16,1111122 
DISL,ioos:station:DISL:MHPA:1,2017-06-05T18:00:00Z,30.6671,-87.9365,1.424,7.29,1111122 
DISL,ioos:station:DISL:MHPA:1,2017-06-05T18:30:00Z,30.6671,-87.9365,1.415,7.42,1111122 
DISL,ioos:station:DISL:MHPA:1,2017-06-05T19:00:00Z,30.6671,-87.9365,1.396,7.89,1111122 
DISL,ioos:station:DISL:MHPA:1,2017-06-05T19:30:00Z,30.6671,-87.9365,1.374,7.42,1111122 
DISL,ioos:station:DISL:MHPA:1,2017-06-05T20:00:00Z,30.6671,-87.9365,1.367,7.89,1111122 
DISL,ioos:station:DISL:MHPA:1,2017-06-05T20:30:00Z,30.6671,-87.9365,1.351,7.58,1111122 
DISL,ioos:station:DISL:MHPA:1,2017-06-05T21:00:00Z,30.6671,-87.9365,1.329,7.54,1111122 
DISL,ioos:station:DISL:MHPA:1,2017-06-05T21:30:00Z,30.6671,-87.9365,1.31,7.59,1111122 
DISL,ioos:station:DISL:MHPA:1,2017-06-05T22:00:00Z,30.6671,-87.9365,1.299,7.38,1111122 
DISL,ioos:station:DISL:MHPA:1,2017-06-05T22:30:00Z,30.6671,-87.9365,1.287,7.14,1111122 
DISL,ioos:station:DISL:MHPA:1,2017-06-05T23:00:00Z,30.6671,-87.9365,1.282,7.32,1111122 
DISL,ioos:station:DISL:MHPA:1,2017-06-05T23:30:00Z,30.6671,-87.9365,1.27,7.19,1111122 
DISL,ioos:station:DISL:MHPA:1,2017-06-06T00:00:00Z,30.6671,-87.9365,1.239,7.05,1111122 
DISL,ioos:station:DISL:MHPA:1,2017-06-06T00:30:00Z,30.6671,-87.9365,1.21,7.27,1111122 
DISL,ioos:station:DISL:MHPA:1,2017-06-06T01:00:00Z,30.6671,-87.9365,1.193,7.23,1111122 
DISL,ioos:station:DISL:MHPA:1,2017-06-06T01:30:00Z,30.6671,-87.9365,1.19,7.07,1111122 
DISL,ioos:station:DISL:MHPA:1,2017-06-06T02:00:00Z,30.6671,-87.9365,1.177,7.07,1111122 
DISL,ioos:station:DISL:MHPA:1,2017-06-06T02:30:00Z,30.6671,-87.9365,1.166,6.91,1111122 
DISL,ioos:station:DISL:MHPA:1,2017-06-06T03:00:00Z,30.6671,-87.9365,1.168,7.02,1111122 
DISL,ioos:station:DISL:MHPA:1,2017-06-06T03:30:00Z,30.6671,-87.9365,1.153,6.89,1111122 
DISL,ioos:station:DISL:MHPA:1,2017-06-06T04:00:00Z,30.6671,-87.9365,1.134,6.8,1111122 
DISL,ioos:station:DISL:MHPA:1,2017-06-06T04:30:00Z,30.6671,-87.9365,1.134,6.77,1111122 
DISL,ioos:station:DISL:MHPA:1,2017-06-06T05:00:00Z,30.6671,-87.9365,1.141,6.66,1111122 
DISL,ioos:station:DISL:MHPA:1,2017-06-06T05:30:00Z,30.6671,-87.9365,1.162,6.45,1111122 
DISL,ioos:station:DISL:MHPA:1,2017-06-06T06:00:00Z,30.6671,-87.9365,1.172,6.5,1111122 
DISL,ioos:station:DISL:MHPA:1,2017-06-06T06:30:00Z,30.6671,-87.9365,1.176,6.4,1111122 
DISL,ioos:station:DISL:MHPA:1,2017-06-06T07:00:00Z,30.6671,-87.9365,1.188,6.37,1111122 
DISL,ioos:station:DISL:MHPA:1,2017-06-06T07:30:00Z,30.6671,-87.9365,1.233,6.49,1111122 
DISL,ioos:station:DISL:MHPA:1,2017-06-06T08:00:00Z,30.6671,-87.9365,1.296,6.27,1111122 
DISL,ioos:station:DISL:MHPA:1,2017-06-06T08:30:00Z,30.6671,-87.9365,1.312,6.27,1111122 
DISL,ioos:station:DISL:MHPA:1,2017-06-06T09:00:00Z,30.6671,-87.9365,1.377,5.99,1111122 
DISL,ioos:station:DISL:MHPA:1,2017-06-06T09:30:00Z,30.6671,-87.9365,1.451,5.88,1111122 
DISL,ioos:station:DISL:MHPA:1,2017-06-06T10:00:00Z,30.6671,-87.9365,1.459,6.07,1111122 
DISL,ioos:station:DISL:MHPA:1,2017-06-06T10:30:00Z,30.6671,-87.9365,1.42,6.06,1111122 
DISL,ioos:station:DISL:MHPA:1,2017-06-06T11:00:00Z,30.6671,-87.9365,1.415,5.73,1111122 
DISL,ioos:station:DISL:MHPA:1,2017-06-06T11:30:00Z,30.6671,-87.9365,1.422,5.58,1111122 
DISL,ioos:station:DISL:MHPA:1,2017-06-06T12:00:00Z,30.6671,-87.9365,1.406,5.55,1111122 
DISL,ioos:station:DISL:MHPA:1,2017-06-06T12:30:00Z,30.6671,-87.9365,1.396,5.79,1111122 
DISL,ioos:station:DISL:MHPA:1,2017-06-06T13:00:00Z,30.6671,-87.9365,1.446,5.63,1111122 
DISL,ioos:station:DISL:MHPA:1,2017-06-06T13:30:00Z,30.6671,-87.9365,1.492,5.87,1111122 
DISL,ioos:station:DISL:MHPA:1,2017-06-06T14:00:00Z,30.6671,-87.9365,1.518,6.09,1111122 
DISL,ioos:station:DISL:MHPA:1,2017-06-06T14:30:00Z,30.6671,-87.9365,1.511,5.76,1111122 
DISL,ioos:station:DISL:MHPA:1,2017-06-06T15:00:00Z,30.6671,-87.9365,1.491,5.53,1111122 
DISL,ioos:station:DISL:MHPA:1,2017-06-06T15:30:00Z,30.6671,-87.9365,1.499,5.3,1111122 
DISL,ioos:station:DISL:MHPA:1,2017-06-06T16:00:00Z,30.6671,-87.9365,1.474,5.48,1111122 
DISL,ioos:station:DISL:MHPA:1,2017-06-06T16:30:00Z,30.6671,-87.9365,1.469,5.62,1111122 
DISL,ioos:station:DISL:MHPA:1,2017-06-06T17:00:00Z,30.6671,-87.9365,1.471,5.87,1111122 
DISL,ioos:station:DISL:MHPA:1,2017-06-06T17:30:00Z,30.6671,-87.9365,1.464,6.15,1111122 